This demonstration page uses our WeatherBlox Daily Observations layout. Learn more.

Left ArrowRight Arrow

41.86663, -103.66717

Hourly Observations for September 24, 2015

Temp ( °F °C ) Dew Point ( °F °C ) Humidity (%) Winds ( mph kmh ) Pressure ( in mb ) Visibility ( mi km ) Precip ( " mm )
12:53 am 00:53 Clear 55 12.8 53 11.7 93 93 N N/A 30.07 1018 10 16 N/A
1:53 am 01:53 Clear 51 10.6 50 10 96 96 W 3 6 30.08 1019 10 16 N/A
2:53 am 02:53 Clear 51 10.6 49 9.4 92 92 NNW 5 7 30.07 1018 10 16 N/A
3:53 am 03:53 Clear 50 10 49 9.4 96 96 N 7 11 30.09 1019 10 16 N/A
4:53 am 04:53 Partly Cloudy with Mist and Fog 50 10 49 9.4 96 96 WNW 7 11 30.10 1019 4 6 N/A
4:56 am 04:56 Partly Cloudy with Mist and Fog 50 10 48 9 94 94 WNW 6 9 30.12 1020 2 3 N/A
5:01 am 05:01 Mostly Cloudy with Mist and Fog 48 9 48 9 100 100 WNW 6 9 30.18 1022 1 1 N/A
5:39 am 05:39 Mostly Cloudy with Fog 50 10 50 10 100 100 WNW 8 13 30.15 1021 1 1 N/A
5:53 am 05:53 Mostly Cloudy with Fog 51 10.6 50 10 96 96 WNW 8 13 30.12 1020 0 0 N/A
6:53 am 06:53 Mostly Cloudy with Fog 52 11.1 51 10.6 97 97 WNW 9 15 30.14 1021 0 0 N/A
7:08 am 07:08 Mostly Cloudy with Fog 52 11 52 11 100 100 NW 8 13 30.18 1022 5 8 N/A
7:37 am 07:37 Mostly Cloudy with Fog 53 11.7 52 11.1 96 96 WNW 9 15 30.15 1021 0 0 N/A
7:53 am 07:53 Mostly Cloudy with Fog 53 11.7 52 11.1 96 96 WNW 9 15 30.16 1022 0 0 N/A
8:53 am 08:53 Mostly Cloudy with Fog 55 12.8 54 12.2 96 96 NW 8 13 30.18 1022 0 0 N/A
9:26 am 09:26 Mostly Cloudy with Fog 56 13.3 55 12.8 97 97 WNW 8 13 30.18 1022 1 1 N/A
9:37 am 09:37 Cloudy with Mist and Fog 57 13.9 56 13.3 96 96 WNW 9 15 30.18 1022 2 3 N/A
9:42 am 09:42 Cloudy with Mist and Fog 55 13 55 13 100 100 WNW 9 15 30.18 1022 3 5 N/A
9:53 am 09:53 Cloudy with Mist and Fog 57 13.9 56 13.3 96 96 NW 10 17 30.19 1022 5 8 N/A
10:32 am 10:32 Partly Cloudy 63 17 55 13 77 77 WNW 10 17 30.12 1020 9 14 N/A
10:53 am 10:53 Sunny 67 19.4 57 13.9 71 71 WNW 10 17 30.18 1022 10 16 N/A
11:53 am 11:53 Sunny 74 23.3 58 14.4 57 57 WNW 6 9 30.16 1021 10 16 N/A
12:53 pm 12:53 Sunny 79 26.1 55 12.8 44 44 undefined N/A 30.14 1021 10 16 N/A
1:53 pm 13:53 Sunny 82 27.8 54 12.2 38 38 WNW 6 9 30.12 1020 10 16 N/A
2:53 pm 14:53 Sunny 85 29.4 45 7.2 25 25 ENE 8 13 30.10 1019 10 16 N/A
3:53 pm 15:53 Sunny 85 29.4 43 6.1 23 23 NNE 10 17 30.10 1019 10 16 N/A
4:53 pm 16:53 Sunny 83 28.3 48 8.9 30 30 ENE 8 13 30.10 1019 10 16 N/A
5:53 pm 17:53 Sunny 79 26.1 51 10.6 38 38 ENE 10 17 30.12 1020 10 16 N/A
6:53 pm 18:53 Clear 68 20 56 13.3 65 65 E 7 11 30.16 1021 10 16 N/A
7:53 pm 19:53 Clear 63 17.2 55 12.8 76 76 E 6 9 30.19 1022 10 16 N/A
8:53 pm 20:53 Clear 63 17.2 52 11.1 68 68 E 10 17 30.21 1023 10 16 N/A
9:53 pm 21:53 Clear 60 15.6 52 11.1 75 75 SE 6 9 30.24 1024 10 16 N/A
10:53 pm 22:53 Clear 56 13.3 51 10.6 84 84 N N/A 30.24 1024 10 16 N/A
11:53 pm 23:53 Clear 56 13.3 52 11.1 87 87 E 8 13 30.24 1024 10 16 N/A

Powered by AerisWeather